Voltar ao catálogo

STARLINK-37201

AtivoComunicaçõesSSO
NORAD 69220·PAYLOAD·🇺🇸 United States

Lançado May 26, 2026 de Vandenberg Space Force Base

Loading…

Próximas Passagens (próximas 24 horas)

TLE

AtualizadoSource: CelesTrak SupGP

Época: Sep 15, 2026, 03:25 UTC

1 69220C 26115K   26258.14284722 -.00063990  00000+0 -19867-2 0  2586
2 69220  97.2830 274.2966 0001417  88.5036  73.5696 15.33466084    16

Acompanhe STARLINK-37201 em tempo real com AllMySat

Download on the App Store